Location: Buchberg
(46.9333°N, 15.8500°E)
Time: 19:57:27
(UTC+00:00)

Cosmos 1602 - Pass Details

Date: 14 July 2020
Orbit: 515 x 533 km, 82.5° (Epoch: 05 August)

Event Time Altitude Azimuth Distance (km) Brightness Sun altitude
Exits shadow 00:17:37 57° 210° (SSW) 613 3.6 -19.4°
Maximum altitude 00:18:18 77° 278° (W) 536 3.6 -19.3°
Drops below altitude 10° 00:22:10 10° 6° (N) 1,762 7.6 -19.1°
Sets 00:24:20 0° 8° (N) 2,658 8.8 -19.0°
